Regional Weather Roundup
Issued by NWS

Home | Current Version | Previous Version | Graphics & Text | Print | Product List | Glossary On
Versions: 1 2 3 4 5 6 7 8 9 10 11 12 13 14 15 16 17 18 19 20 21 22 23 24 25 26 27 28 29 30 31 32 33 34 35 36 37 38 39 40 41 42 43 44 45 46 47 48 49 50
000
ASUS44 KMEG 041410
RWRTN
TENNESSEE HOURLY STATE WEATHER ROUNDUP
NATIONAL WEATHER SERVICE MEMPHIS TN
900 AM CDT SAT JUL 04 2015

TNZ002-004-019-021-049-052-054-088>092-041500-
WEST TENNESSEE

CITY           SKY/WX    TMP DP  RH WIND       PRES   REMARKS
MEMPHIS INTL   CLOUDY    75  71  87 SW5       30.00R
NWS MEMPHIS      N/A     74 N/A N/A MISG        N/A
JACKSON        CLOUDY    73  70  90 SW3       30.00R
DYERSBURG        N/A    N/A N/A N/A MISG        N/A
PARIS          CLOUDY    73  70  88 W3        30.00R
LEXINGTON      CLOUDY    70  70 100 S7        30.00R
$$

TNZ008-025-027-028-033-062-065-066-041500-
NORTH MIDDLE TENNESSEE

CITY           SKY/WX    TMP DP  RH WIND       PRES   REMARKS
NASHVILLE      CLOUDY    75  71  87 W5        30.01R
CLARKSVILLE    CLOUDY    74  70  87 CALM      29.99R
SMYRNA         CLOUDY    76  70  82 W7        30.02R
COOKEVILLE     CLOUDY    72  70  94 SW6       30.03R
CROSSVILLE     CLOUDY    69  66  90 SW5       30.07R
$$

TNZ061-075-076-078-094-096-097-041500-
SOUTH MIDDLE TENNESSEE

CITY           SKY/WX    TMP DP  RH WIND       PRES   REMARKS
FAYETTEVILLE   CLOUDY    68  66  94 SW9       30.05R
TULLAHOMA      CLOUDY    70  68  94 SW9       30.05R
WINCHESTER     CLOUDY    70  68  94 W3        30.05R
MCMINNVILLE    CLOUDY    70  70 100 SW6       30.04R
COLUMBIA       CLOUDY    72  72 100 SW7       30.01R
SHELBYVILLE    CLOUDY    72  70  94 SW6         N/A
$$

TNZ017-018-042-046-047-041500-
NORTHEAST TENNESSEE

CITY           SKY/WX    TMP DP  RH WIND       PRES   REMARKS
TRI CITIES     CLOUDY    71  67  87 SW12      30.04R
ELIZABETHTON   CLOUDY    68  64  88 SW7       30.05R
$$

TNZ012-013-036-069-073-074-041500-
CENTRAL EAST TENNESSEE

CITY           SKY/WX    TMP DP  RH WIND       PRES   REMARKS
KNOXVILLE      CLOUDY    71  67  87 SW14      30.03R
OAK RIDGE      CLOUDY    72  68  87 CALM      30.03S
GATLINBURG     CLOUDY    73  64  73 VRB5      30.02R
MORRISTOWN       N/A     72  68  88 W8        30.05R
$$

TNZ083-085-099-041500-
SOUTHEAST TENNESSEE

CITY           SKY/WX    TMP DP  RH WIND       PRES   REMARKS
CHATTANOOGA    CLOUDY    71  69  93 SE3       30.05R FOG
$$

SKY/WX REPORTED AS FAIR MEANS FEW OR NO CLOUDS BELOW
12 THOUSAND FEET.




USA.gov is the U.S. government's official web portal to all federal, state and local government web resources and services.